Back to catalog

STARLINK-11271

AliveCommunicationsVLEO
NORAD 60915·PAYLOAD·🇺🇸 United States

Launched Aug 31, 2024 from Cape Canaveral Space Force Station

Loading…

Next Passes (next 24 hours)

TLE

FreshSource: CelesTrak SupGP

Epoch: Sep 14, 2026, 14:42 UTC

1 60915C 24154N   26257.61298611  .00038664  00000+0  31856-3 0  2572
2 60915  53.1562 279.7363 0001015  88.3863 129.4687 15.69685122    18

Track STARLINK-11271 in real time with AllMySat

Download on the App Store